Tracking 34719 objects as of 12-Jul-2026
HD Live streaming from Space Station
objects crossing your sky now

STARLINK-5770

Track STARLINK-5770 now!
10-day predictions
STARLINK-5770 is classified as:


NORAD ID: 56026
Int'l Code: 2023-042AS
Perigee: 489.2 km
Apogee: 491.2 km
Inclination: 43.0 °
Period: 94.3 minutes
Semi major axis: 6861 km
RCS: Unknown
Launch date: March 24, 2022
Source: United States (US)
Launch site: AIR FORCE EASTERN TEST RANGE (AFETR)
Your satellite tracking list
Your tracking list is empty




NASA's NSSDC Master Catalog

Two Line Element Set (TLE):
1 56026U 23042AS  26193.01761690 -.00000212  00000-0  18118-5 0  9991
2 56026  43.0064  62.7644 0001436 266.9246  93.1441 15.27577594182045
Source of the keplerian elements: AFSPC